This demonstration page uses our WeatherBlox Daily Observations layout. Learn more.

Left ArrowRight Arrow

34.74481, -87.66753

Hourly Observations for June 14, 2019

Temp ( °F °C ) Dew Point ( °F °C ) Humidity (%) Winds ( mph kmh ) Pressure ( in mb ) Visibility ( mi km ) Precip ( " mm )
12:53 am 00:53 Clear 59 15 55 12.8 87 87 Calm 30.13 1020 10 16 0.00 0.00
1:53 am 01:53 Clear 59 15 54 12.2 83 83 NNE 3 6 30.13 1020 10 16 0.00 0.00
2:53 am 02:53 Clear 58 14.4 54 12.2 87 87 Calm 30.13 1020 10 16 0.00 0.00
3:53 am 03:53 Clear 56 13.3 53 11.7 90 90 Calm 30.14 1021 10 16 0.00 0.00
4:53 am 04:53 Clear 55 12.8 52 11.1 90 90 Calm 30.14 1021 10 16 0.00 0.00
5:53 am 05:53 Sunny 55 12.8 53 11.7 93 93 SSW 3 6 30.16 1021 10 16 0.00 0.00
6:53 am 06:53 Sunny 59 15 55 12.8 87 87 Calm 30.17 1022 10 16 0.00 0.00
7:53 am 07:53 Sunny 65 18.3 55 12.8 70 70 ESE 7 11 30.19 1022 10 16 0.00 0.00
8:53 am 08:53 Sunny 71 21.7 51 10.6 49 49 SE 8 13 30.19 1022 10 16 0.00 0.00
9:53 am 09:53 Sunny 75 23.9 50 10 41 41 SSE 8 13 30.20 1023 10 16 0.00 0.00
10:53 am 10:53 Sunny 77 25 48 8.9 36 36 SSE 9 15 30.19 1022 10 16 0.00 0.00
11:53 am 11:53 Sunny 80 26.7 49 9.4 34 34 S 6 9 30.17 1022 10 16 0.00 0.00
12:53 pm 12:53 Sunny 81 27.2 48 8.9 32 32 W 6 9 30.16 1021 10 16 0.00 0.00
1:53 pm 13:53 Sunny 82 27.8 50 10 33 33 VRB 3 6 30.12 1020 10 16 0.00 0.00
2:53 pm 14:53 Sunny 83 28.3 50 10 32 32 Calm 30.10 1019 10 16 0.00 0.00
3:53 pm 15:53 Sunny 84 28.9 51 10.6 32 32 S 9 15 30.09 1019 10 16 0.00 0.00
4:53 pm 16:53 Sunny 83 28.3 51 10.6 33 33 S 8 13 30.07 1018 10 16 0.00 0.00
5:53 pm 17:53 Sunny 84 28.9 52 11.1 33 33 S 7 11 30.06 1018 10 16 0.00 0.00
6:53 pm 18:53 Sunny 81 27.2 53 11.7 38 38 S 7 11 30.05 1018 10 16 0.00 0.00
7:53 pm 19:53 Sunny 79 26.1 54 12.2 42 42 S 3 6 30.05 1018 10 16 0.00 0.00
8:53 pm 20:53 Clear 73 22.8 59 15 62 62 Calm 30.06 1018 10 16 0.00 0.00
9:53 pm 21:53 Clear 72 22.2 58 14.4 61 61 SE 6 9 30.06 1018 10 16 0.00 0.00
10:53 pm 22:53 Clear 73 22.8 59 15 62 62 SSE 6 9 30.06 1018 10 16 0.00 0.00
11:53 pm 23:53 Clear 72 22.2 57 13.9 59 59 SSE 7 11 30.06 1018 10 16 0.00 0.00

Powered by AerisWeather